Terminal Aerodrome Forecast
Issued by NWS State College, PA

Home | Current Version | Previous Version | Text Only | Print | Product List | Glossary On
Versions: 1 2 3 4 5 6 7 8 9 10 11 12 13 14 15 16 17 18 19 20 21 22 23 24 25 26 27 28 29 30 31 32 33 34 35 36 37 38 39 40 41 42 43 44 45 46 47 48 49 50
301
FTUS41 KCTP 122347
TAFMDT
TAF
KMDT 122347Z 1300/1324 00000KT P6SM -SN BKN050 BKN100 OVC150
     FM130100 25010G17KT 5SM -SHSN SCT025 OVC035
     FM130400 29012G20KT 5SM -SHSN SCT025 OVC040
     FM130700 29016G26KT P6SM BKN050=

USA.gov is the U.S. government's official web portal to all federal, state and local government web resources and services.